| time (UTC) | temp F | wind direction | speed MPH | gust MPH | rain 1hr in | rain 24hr in | rain mn in | humidity % | barometer mb |
| 20260504081908 | 63 | 225 | 0.0 | 4.0 | 0.00 | 0.00 | 0.00 | 56 | 1010.1 |
| 20260504081819 | 63 | 225 | 0.0 | 4.0 | 0.00 | 0.00 | 0.00 | 56 | 1010.1 |
| 20260504081616 | 63 | 337 | 0.0 | 4.0 | 0.00 | 0.00 | 0.00 | 54 | 1010.4 |
| 20260504081414 | 63 | 315 | 2.0 | 2.0 | 0.00 | 0.00 | 0.00 | 56 | 1010.3 |
| 20260504081407 | 63 | 0 | 2.0 | 5.0 | 0.00 | 0.00 | 0.00 | 56 | 1010.0 |
| 20260504081328 | 63 | 0 | 2.0 | 5.0 | 0.00 | 0.00 | 0.00 | 56 | 1010.0 |
| 20260504080519 | 63 | 292 | 3.0 | 126.0 | 0.00 | 0.00 | 0.00 | 56 | 1010.5 |
| 20260504080316 | 63 | 292 | 2.0 | 126.0 | 0.00 | 0.00 | 0.00 | 54 | 1010.5 |
| 20260504080212 | 63 | 225 | 126.0 | 126.0 | 0.00 | 0.00 | 0.00 | 54 | 1010.3 |
| 20260504070403 | 62 | 225 | 1.0 | 3.0 | 0.00 | 0.00 | 0.00 | 57 | 1010.1 |
| 20260504070200 | 62 | 225 | 1.0 | 1.0 | 0.00 | 0.00 | 0.00 | 55 | 1009.9 |
| 20260504050633 | 59 | 225 | 3.0 | 6.0 | 0.00 | 0.00 | 0.00 | 61 | 1009.6 |
| 20260504050431 | 59 | 292 | 5.0 | 6.0 | 0.00 | 0.00 | 0.00 | 59 | 1009.7 |
| 20260504050229 | 59 | 326 | 4.0 | 6.0 | 0.00 | 0.00 | 0.00 | 59 | 1009.7 |
| 20260504045454 | 59 | 292 | 4.0 | 6.0 | 0.00 | 0.00 | 0.00 | 58 | 1009.5 |
| 20260504045415 | 59 | 292 | 4.0 | 6.0 | 0.00 | 0.00 | 0.00 | 58 | 1009.5 |
| 20260504045215 | 59 | 292 | 5.0 | 7.0 | 0.00 | 0.00 | 0.00 | 60 | 1009.2 |
| 20260504044809 | 59 | 292 | 4.0 | 6.0 | 0.00 | 0.00 | 0.00 | 58 | 1009.4 |
| 20260504044202 | 59 | 292 | 3.0 | 5.0 | 0.00 | 0.00 | 0.00 | 60 | 1009.2 |
| 20260504044000 | 59 | 315 | 3.0 | 5.0 | 0.00 | 0.00 | 0.00 | 59 | 1009.4 |
| 20260504043759 | 59 | 292 | 3.0 | 4.0 | 0.00 | 0.00 | 0.00 | 59 | 1009.4 |
| 20260504043555 | 59 | 270 | 3.0 | 4.0 | 0.00 | 0.00 | 0.00 | 58 | 1009.2 |
| 20260504043353 | 59 | 281 | 3.0 | 4.0 | 0.00 | 0.00 | 0.00 | 58 | 1009.1 |
| 20260504043152 | 59 | 270 | 3.0 | 4.0 | 0.00 | 0.00 | 0.00 | 56 | 1009.2 |
| 20260504042950 | 59 | 270 | 3.0 | 4.0 | 0.00 | 0.00 | 0.00 | 61 | 1009.3 |
| 20260504042746 | 59 | 270 | 3.0 | 4.0 | 0.00 | 0.00 | 0.00 | 66 | 1009.4 |
| 20260504042343 | 59 | 292 | 1.0 | 3.0 | 0.00 | 0.00 | 0.00 | 57 | 1009.0 |
| 20260504042141 | 59 | 258 | 1.0 | 3.0 | 0.00 | 0.00 | 0.00 | 61 | 1009.2 |
| 20260504041951 | 59 | 258 | 1.0 | 1.0 | 0.00 | 0.00 | 0.00 | 57 | 1009.3 |
| 20260504041832 | 59 | 326 | 0.0 | 1.0 | 0.00 | 0.00 | 0.00 | 60 | 1009.2 |
| 20260504041735 | 59 | 326 | 0.0 | 1.0 | 0.00 | 0.00 | 0.00 | 60 | 1009.2 |
| 20260504041330 | 59 | 315 | 0.0 | 3.0 | 0.00 | 0.00 | 0.00 | 59 | 1009.1 |
| 20260504041133 | 59 | 292 | 0.0 | 3.0 | 0.00 | 0.00 | 0.00 | 58 | 1009.1 |
| 20260504040926 | 59 | 292 | 0.0 | 3.0 | 0.00 | 0.00 | 0.00 | 62 | 1009.2 |
| 20260504040727 | 59 | 292 | 2.0 | 3.0 | 0.00 | 0.00 | 0.00 | 61 | 1009.3 |
| 20260504040524 | 59 | 303 | 2.0 | 3.0 | 0.00 | 0.00 | 0.00 | 59 | 1009.2 |
| 20260504035916 | 59 | 315 | 0.0 | 3.0 | 0.00 | 0.00 | 0.00 | 60 | 1009.1 |
| 20260504035712 | 59 | 292 | 0.0 | 1.0 | 0.00 | 0.00 | 0.00 | 59 | 1009.2 |
| 20260504035512 | 59 | 292 | 0.0 | 2.0 | 0.00 | 0.00 | 0.00 | 59 | 1009.0 |
| 20260504035309 | 58 | 270 | 0.0 | 4.0 | 0.00 | 0.00 | 0.00 | 62 | 1008.9 |
| 20260504035107 | 58 | 292 | 1.0 | 4.0 | 0.00 | 0.00 | 0.00 | 59 | 1009.0 |
| 20260504034936 | 58 | 225 | 3.0 | 3.0 | 0.00 | 0.00 | 0.00 | 59 | 1009.0 |
| 20260504034903 | 58 | 225 | 3.0 | 3.0 | 0.00 | 0.00 | 0.00 | 59 | 1009.0 |
| 20260504034458 | 58 | 337 | 0.0 | 2.0 | 0.00 | 0.00 | 0.00 | 63 | 1008.8 |
| 20260504034257 | 58 | 326 | 1.0 | 2.0 | 0.00 | 0.00 | 0.00 | 57 | 1008.8 |
| 20260504034056 | 58 | 292 | 1.0 | 2.0 | 0.00 | 0.00 | 0.00 | 60 | 1008.6 |
| 20260504033931 | 58 | 247 | 2.0 | 4.0 | 0.00 | 0.00 | 0.00 | 57 | 1008.7 |
| 20260504033853 | 58 | 247 | 2.0 | 4.0 | 0.00 | 0.00 | 0.00 | 57 | 1008.7 |
| 20260504033651 | 58 | 247 | 2.0 | 4.0 | 0.00 | 0.00 | 0.00 | 60 | 1008.9 |
| 20260504033450 | 58 | 292 | 0.0 | 4.0 | 0.00 | 0.00 | 0.00 | 56 | 1008.8 |
| 20260504032933 | 58 | 270 | 2.0 | 4.0 | 0.00 | 0.00 | 0.00 | 57 | 1008.7 |
| 20260504032841 | 58 | 270 | 2.0 | 4.0 | 0.00 | 0.00 | 0.00 | 57 | 1008.7 |
| 20260504032640 | 58 | 270 | 1.0 | 1.0 | 0.00 | 0.00 | 0.00 | 60 | 1008.9 |
| 20260504032411 | 59 | 292 | 4.0 | 5.0 | 0.00 | 0.00 | 0.00 | 60 | 1008.5 |
| 20260504032331 | 59 | 292 | 4.0 | 5.0 | 0.00 | 0.00 | 0.00 | 60 | 1008.5 |
| 20260504032128 | 59 | 292 | 2.0 | 5.0 | 0.00 | 0.00 | 0.00 | 58 | 1008.9 |
| 20260504031926 | 59 | 315 | 5.0 | 5.0 | 0.00 | 0.00 | 0.00 | 59 | 1008.9 |
| 20260504031602 | 59 | 315 | 3.0 | 3.0 | 0.00 | 0.00 | 0.00 | 58 | 1009.0 |
| 20260504031521 | 59 | 315 | 3.0 | 3.0 | 0.00 | 0.00 | 0.00 | 58 | 1009.0 |
| 20260504031319 | 59 | 315 | 3.0 | 3.0 | 0.00 | 0.00 | 0.00 | 59 | 1008.5 |
| 20260504031117 | 59 | 292 | 3.0 | 3.0 | 0.00 | 0.00 | 0.00 | 59 | 1008.9 |
| 20260504030914 | 59 | 315 | 2.0 | 2.0 | 0.00 | 0.00 | 0.00 | 58 | 1008.9 |
| 20260504030712 | 59 | 303 | 0.0 | 1.0 | 0.00 | 0.00 | 0.00 | 59 | 1008.6 |
| 20260504030514 | 59 | 337 | 0.0 | 126.0 | 0.00 | 0.00 | 0.00 | 55 | 1008.7 |
| 20260504030307 | 59 | 292 | 1.0 | 126.0 | 0.00 | 0.00 | 0.00 | 56 | 1008.6 |
| 20260504030206 | 59 | 292 | 126.0 | 126.0 | 0.00 | 0.00 | 0.00 | 58 | 1008.7 |
| 20260504025840 | 59 | 326 | 1.0 | 2.0 | 0.00 | 0.00 | 0.00 | 54 | 1008.3 |
| 20260504025637 | 59 | 292 | 0.0 | 5.0 | 0.00 | 0.00 | 0.00 | 59 | 1008.4 |
| 20260504025435 | 59 | 315 | 3.0 | 5.0 | 0.00 | 0.00 | 0.00 | 58 | 1008.3 |
| 20260504025237 | 59 | 326 | 4.0 | 7.0 | 0.00 | 0.00 | 0.00 | 57 | 1008.5 |
| 20260504025031 | 59 | 281 | 5.0 | 129.0 | 0.00 | 0.00 | 0.00 | 58 | 1008.7 |
| 20260504024828 | 59 | 0 | 6.0 | 129.0 | 0.00 | 0.00 | 0.00 | 57 | 1008.7 |
| 20260504024639 | 59 | 225 | 7.0 | 7.0 | 0.00 | 0.00 | 0.00 | 58 | 1008.2 |
| 20260504024436 | 59 | 225 | 5.0 | 6.0 | 0.00 | 0.00 | 0.00 | 58 | 1008.6 |
| 20260504024234 | 59 | 225 | 5.0 | 5.0 | 0.00 | 0.00 | 0.00 | 58 | 1008.5 |
| 20260504024031 | 60 | 225 | 1.0 | 3.0 | 0.00 | 0.00 | 0.00 | 54 | 1007.9 |
| 20260504023829 | 60 | 292 | 2.0 | 3.0 | 0.00 | 0.00 | 0.00 | 57 | 1008.4 |
| 20260504023737 | 60 | 225 | 0.0 | 1.0 | 0.00 | 0.00 | 0.00 | 55 | 1008.7 |
| 20260504023627 | 60 | 247 | 2.0 | 2.0 | 0.00 | 0.00 | 0.00 | 58 | 1008.5 |
| 20260504023424 | 60 | 236 | 2.0 | 2.0 | 0.00 | 0.00 | 0.00 | 58 | 1008.2 |
| 20260504023223 | 60 | 225 | 0.0 | 1.0 | 0.00 | 0.00 | 0.00 | 55 | 1008.7 |
| 20260504022820 | 60 | 225 | 1.0 | 2.0 | 0.00 | 0.00 | 0.00 | 58 | 1008.5 |
| 20260504022311 | 60 | 236 | 124.0 | 124.0 | 0.00 | 0.00 | 0.00 | 58 | 1008.6 |
| 20260504022157 | 60 | 225 | 1.0 | 1.0 | 0.00 | 0.00 | 0.00 | 58 | 1008.4 |
| 20260504022025 | 60 | 247 | 1.0 | 4.0 | 0.00 | 0.00 | 0.00 | 58 | 1008.8 |
| 20260504021822 | 60 | 225 | 2.0 | 4.0 | 0.00 | 0.00 | 0.00 | 60 | 1008.6 |
| 20260504021417 | 60 | 236 | 2.0 | 3.0 | 0.00 | 0.00 | 0.00 | 58 | 1008.5 |
| 20260504021215 | 60 | 225 | 2.0 | 2.0 | 0.00 | 0.00 | 0.00 | 57 | 1008.4 |
| 20260504021013 | 60 | 236 | 1.0 | 2.0 | 0.00 | 0.00 | 0.00 | 55 | 1008.6 |
| 20260504020811 | 60 | 247 | 0.0 | 1.0 | 0.00 | 0.00 | 0.00 | 58 | 1008.5 |
| 20260504020406 | 60 | 247 | 0.0 | 1.0 | 0.00 | 0.00 | 0.00 | 61 | 1008.6 |
| 20260504020204 | 60 | 0 | 0.0 | 1.0 | 0.00 | 0.00 | 0.00 | 58 | 1008.9 |
| 20260504020002 | 60 | 337 | 1.0 | 125.0 | 0.00 | 0.00 | 0.00 | 57 | 1008.7 |
| 20260504015800 | 61 | 303 | 1.0 | 125.0 | 0.00 | 0.00 | 0.00 | 58 | 1008.4 |
| 20260504015657 | 61 | 292 | 125.0 | 125.0 | 0.00 | 0.00 | 0.00 | 56 | 1008.6 |
| 20260504014913 | 61 | 247 | 2.0 | 126.0 | 0.00 | 0.00 | 0.00 | 60 | 1008.5 |
| 20260504014751 | 61 | 236 | 1.0 | 125.0 | 0.00 | 0.00 | 0.00 | 59 | 1008.6 |
| 20260504014742 | 61 | 247 | 125.0 | 125.0 | 0.00 | 0.00 | 0.00 | 59 | 1008.8 |
| 20260504014649 | 61 | 247 | 125.0 | 125.0 | 0.00 | 0.00 | 0.00 | 59 | 1008.8 |
| 20260504014514 | 61 | 225 | 1.0 | 4.0 | 0.00 | 0.00 | 0.00 | 56 | 1008.5 |
| 20260504014401 | 61 | 236 | 3.0 | 4.0 | 0.00 | 0.00 | 0.00 | 54 | 1008.6 |
| 20260504014311 | 61 | 236 | 3.0 | 4.0 | 0.00 | 0.00 | 0.00 | 54 | 1008.6 |
| 20260504014149 | 61 | 225 | 3.0 | 3.0 | 0.00 | 0.00 | 0.00 | 61 | 1008.8 |
| 20260504014116 | 61 | 225 | 3.0 | 3.0 | 0.00 | 0.00 | 0.00 | 61 | 1008.8 |
| 20260504013906 | 61 | 225 | 2.0 | 4.0 | 0.00 | 0.00 | 0.00 | 58 | 1008.8 |
| 20260504013506 | 61 | 236 | 2.0 | 126.0 | 0.00 | 0.00 | 0.00 | 58 | 1008.6 |
| 20260504013157 | 61 | 225 | 126.0 | 126.0 | 0.00 | 0.00 | 0.00 | 55 | 1008.6 |
| 20260504012823 | 61 | 225 | 3.0 | 3.0 | 0.00 | 0.00 | 0.00 | 57 | 1008.7 |
| 20260504012216 | 61 | 225 | 2.0 | 126.0 | 0.00 | 0.00 | 0.00 | 58 | 1008.6 |
| 20260504012114 | 61 | 225 | 126.0 | 126.0 | 0.00 | 0.00 | 0.00 | 60 | 1009.0 |
| 20260504011845 | 61 | 247 | 0.0 | 1.0 | 0.00 | 0.00 | 0.00 | 60 | 1009.1 |
| 20260504011648 | 61 | 225 | 1.0 | 1.0 | 0.00 | 0.00 | 0.00 | 56 | 1008.9 |
| 20260504011511 | 61 | 303 | 0.0 | 0.0 | 0.00 | 0.00 | 0.00 | 59 | 1008.9 |
| 20260504011439 | 61 | 303 | 0.0 | 0.0 | 0.00 | 0.00 | 0.00 | 59 | 1008.9 |
| 20260504010834 | 61 | 225 | 1.0 | 2.0 | 0.00 | 0.00 | 0.00 | 58 | 1008.9 |
| 20260504010631 | 61 | 225 | 1.0 | 1.0 | 0.00 | 0.00 | 0.00 | 59 | 1009.1 |
| 20260504010417 | 61 | 236 | 0.0 | 2.0 | 0.00 | 0.00 | 0.00 | 59 | 1009.1 |
| 20260504010214 | 61 | 225 | 2.0 | 2.0 | 0.00 | 0.00 | 0.00 | 60 | 1008.3 |
| 20260504010012 | 61 | 247 | 1.0 | 1.0 | 0.00 | 0.00 | 0.00 | 58 | 1009.2 |
| 20260504005810 | 61 | 225 | 0.0 | 0.0 | 0.00 | 0.00 | 0.00 | 58 | 1008.9 |
| 20260504005304 | 61 | 247 | 124.0 | 124.0 | 0.00 | 0.00 | 0.00 | 58 | 1009.1 |
| 20260504005110 | 61 | 315 | 1.0 | 3.0 | 0.00 | 0.00 | 0.00 | 56 | 1009.2 |
| 20260504004910 | 61 | 292 | 2.0 | 2.0 | 0.00 | 0.00 | 0.00 | 59 | 1009.0 |
| 20260504004708 | 61 | 303 | 2.0 | 127.0 | 0.00 | 0.00 | 0.00 | 59 | 1009.2 |
| 20260504004704 | 61 | 303 | 2.0 | 127.0 | 0.00 | 0.00 | 0.00 | 59 | 1009.2 |
| 20260504004502 | 61 | 326 | 3.0 | 127.0 | 0.00 | 0.00 | 0.00 | 59 | 1009.0 |
| 20260504004401 | 61 | 281 | 127.0 | 127.0 | 0.00 | 0.00 | 0.00 | 59 | 1008.9 |
| 20260504004308 | 61 | 348 | 3.0 | 3.0 | 0.00 | 0.00 | 0.00 | 58 | 1009.3 |
| 20260504004106 | 61 | 0 | 2.0 | 2.0 | 0.00 | 0.00 | 0.00 | 56 | 1009.0 |
| 20260504003903 | 61 | 292 | 1.0 | 1.0 | 0.00 | 0.00 | 0.00 | 55 | 1009.0 |
| 20260504003706 | 61 | 292 | 1.0 | 1.0 | 0.00 | 0.00 | 0.00 | 58 | 1009.3 |
| 20260504003457 | 61 | 292 | 1.0 | 124.0 | 0.00 | 0.00 | 0.00 | 59 | 1009.1 |
| 20260504003257 | 61 | 247 | 0.0 | 124.0 | 0.00 | 0.00 | 0.00 | 58 | 1008.7 |
| 20260504003154 | 61 | 292 | 124.0 | 124.0 | 0.00 | 0.00 | 0.00 | 59 | 1009.2 |
| 20260504003107 | 61 | 247 | 0.0 | 0.0 | 0.00 | 0.00 | 0.00 | 59 | 1009.4 |
| 20260504002905 | 61 | 247 | 0.0 | 0.0 | 0.00 | 0.00 | 0.00 | 60 | 1009.3 |
| 20260504002702 | 61 | 247 | 0.0 | 0.0 | 0.00 | 0.00 | 0.00 | 58 | 1009.1 |
| 20260504002500 | 61 | 247 | 0.0 | 125.0 | 0.00 | 0.00 | 0.00 | 58 | 1009.2 |
| 20260504002258 | 60 | 0 | 0.0 | 125.0 | 0.00 | 0.00 | 0.00 | 59 | 1009.0 |
| 20260504002154 | 60 | 326 | 125.0 | 125.0 | 0.00 | 0.00 | 0.00 | 58 | 1009.1 |
| 20260504002121 | 60 | 292 | 1.0 | 2.0 | 0.00 | 0.00 | 0.00 | 65 | 1008.9 |
| 20260504001914 | 60 | 236 | 1.0 | 2.0 | 0.00 | 0.00 | 0.00 | 58 | 1008.9 |
| 20260504001712 | 60 | 236 | 2.0 | 2.0 | 0.00 | 0.00 | 0.00 | 60 | 1009.1 |
| 20260504001510 | 60 | 337 | 1.0 | 2.0 | 0.00 | 0.00 | 0.00 | 59 | 1009.2 |
| 20260504001308 | 60 | 247 | 1.0 | 1.0 | 0.00 | 0.00 | 0.00 | 59 | 1008.5 |
| 20260504000955 | 60 | 247 | 1.0 | 2.0 | 0.00 | 0.00 | 0.00 | 59 | 1009.2 |
| 20260504000754 | 60 | 247 | 0.0 | 2.0 | 0.00 | 0.00 | 0.00 | 59 | 1009.3 |
| 20260504000554 | 60 | 45 | 0.0 | 2.0 | 0.00 | 0.00 | 0.00 | 59 | 1009.3 |
| 20260504000350 | 60 | 236 | 2.0 | 2.0 | 0.00 | 0.00 | 0.00 | 58 | 1009.2 |
| 20260504000153 | 60 | 292 | 0.0 | 127.0 | 0.00 | 0.00 | 0.00 | 59 | 1009.1 |
| 20260503235946 | 60 | 303 | 3.0 | 127.0 | 0.00 | 0.00 | 0.00 | 59 | 1009.3 |
| 20260503235843 | 60 | 303 | 127.0 | 127.0 | 0.00 | 0.00 | 0.00 | 60 | 1009.4 |
| 20260503235656 | 60 | 326 | 1.0 | 1.0 | 0.00 | 0.00 | 0.00 | 59 | 1009.1 |
| 20260503235454 | 60 | 315 | 0.0 | 0.0 | 0.00 | 0.00 | 0.00 | 59 | 1009.3 |
| 20260503235252 | 60 | 292 | 0.0 | 1.0 | 0.00 | 0.00 | 0.00 | 59 | 1009.3 |
| 20260503234852 | 60 | 292 | 1.0 | 2.0 | 0.00 | 0.00 | 0.00 | 59 | 1008.9 |
| 20260503234449 | 60 | 315 | 4.0 | 6.0 | 0.00 | 0.00 | 0.00 | 59 | 1009.2 |
| 20260503234248 | 60 | 303 | 4.0 | 6.0 | 0.00 | 0.00 | 0.00 | 59 | 1009.2 |
| 20260503234114 | 60 | 337 | 5.0 | 5.0 | 0.00 | 0.00 | 0.00 | 57 | 1009.2 |
| 20260503234043 | 60 | 337 | 5.0 | 5.0 | 0.00 | 0.00 | 0.00 | 57 | 1009.2 |
| 20260503233841 | 60 | 292 | 3.0 | 3.0 | 0.00 | 0.00 | 0.00 | 62 | 1009.5 |
| 20260503233641 | 60 | 0 | 0.0 | 3.0 | 0.00 | 0.00 | 0.00 | 59 | 1009.2 |
| 20260503233439 | 60 | 247 | 0.0 | 3.0 | 0.00 | 0.00 | 0.00 | 59 | 1009.2 |
| 20260503233236 | 60 | 292 | 2.0 | 2.0 | 0.00 | 0.00 | 0.00 | 58 | 1009.1 |
| 20260503233135 | 60 | 236 | 1.0 | 1.0 | 0.00 | 0.00 | 0.00 | 59 | 1009.0 |
| 20260503233118 | 60 | 236 | 2.0 | 2.0 | 0.00 | 0.00 | 0.00 | 60 | 1009.1 |
| 20260503232915 | 60 | 247 | 1.0 | 2.0 | 0.00 | 0.00 | 0.00 | 60 | 1009.3 |
| 20260503232712 | 60 | 225 | 2.0 | 2.0 | 0.00 | 0.00 | 0.00 | 60 | 1009.1 |
| 20260503232309 | 60 | 0 | 1.0 | 1.0 | 0.00 | 0.00 | 0.00 | 62 | 1009.4 |
| 20260503232025 | 60 | 315 | 0.0 | 0.0 | 0.00 | 0.00 | 0.00 | 60 | 1009.5 |
| 20260503231823 | 60 | 315 | 0.0 | 0.0 | 0.00 | 0.00 | 0.00 | 59 | 1009.2 |
| 20260503231510 | 60 | 225 | 1.0 | 2.0 | 0.00 | 0.00 | 0.00 | 60 | 1009.5 |
| 20260503231418 | 60 | 225 | 1.0 | 2.0 | 0.00 | 0.00 | 0.00 | 60 | 1009.5 |
| 20260503231217 | 60 | 225 | 1.0 | 2.0 | 0.00 | 0.00 | 0.00 | 58 | 1009.6 |
| 20260503230812 | 60 | 247 | 0.0 | 0.0 | 0.00 | 0.00 | 0.00 | 58 | 1009.6 |
| 20260503230609 | 60 | 247 | 0.0 | 0.0 | 0.00 | 0.00 | 0.00 | 58 | 1009.3 |
| 20260503230406 | 60 | 247 | 0.0 | 0.0 | 0.00 | 0.00 | 0.00 | 55 | 1009.7 |
| 20260503230006 | 60 | 292 | 2.0 | 3.0 | 0.00 | 0.00 | 0.00 | 57 | 1009.7 |
| 20260503225921 | 60 | 236 | 2.0 | 4.0 | 0.00 | 0.00 | 0.00 | 58 | 1009.6 |
| 20260503225802 | 60 | 236 | 2.0 | 4.0 | 0.00 | 0.00 | 0.00 | 58 | 1009.6 |
| 20260503225433 | 60 | 303 | 4.0 | 7.0 | 0.00 | 0.00 | 0.00 | 59 | 1009.8 |
| 20260503225359 | 60 | 303 | 4.0 | 7.0 | 0.00 | 0.00 | 0.00 | 59 | 1009.8 |
| 20260503225232 | 60 | 225 | 2.0 | 5.0 | 0.00 | 0.00 | 0.00 | 60 | 1009.5 |
| 20260503225157 | 60 | 225 | 2.0 | 5.0 | 0.00 | 0.00 | 0.00 | 60 | 1009.5 |
| 20260503224954 | 60 | 326 | 1.0 | 5.0 | 0.00 | 0.00 | 0.00 | 56 | 1009.4 |
| 20260503224752 | 60 | 315 | 5.0 | 5.0 | 0.00 | 0.00 | 0.00 | 56 | 1009.5 |
| 20260503224348 | 60 | 258 | 1.0 | 2.0 | 0.00 | 0.00 | 0.00 | 57 | 1009.5 |
| 20260503224145 | 60 | 292 | 2.0 | 2.0 | 0.00 | 0.00 | 0.00 | 59 | 1009.7 |
| 20260503224120 | 60 | 0 | 1.0 | 4.0 | 0.00 | 0.00 | 0.00 | 55 | 1009.7 |
| 20260503223923 | 60 | 225 | 2.0 | 3.0 | 0.00 | 0.00 | 0.00 | 58 | 1009.2 |
| 20260503223719 | 60 | 0 | 2.0 | 3.0 | 0.00 | 0.00 | 0.00 | 59 | 1009.6 |
| 20260503223512 | 60 | 0 | 1.0 | 1.0 | 0.00 | 0.00 | 0.00 | 59 | 1009.8 |
| 20260503223314 | 60 | 337 | 0.0 | 1.0 | 0.00 | 0.00 | 0.00 | 58 | 1009.5 |
| 20260503222906 | 60 | 225 | 3.0 | 127.0 | 0.00 | 0.00 | 0.00 | 55 | 1009.2 |
| 20260503222803 | 60 | 326 | 127.0 | 127.0 | 0.00 | 0.00 | 0.00 | 57 | 1009.3 |
| 20260503222726 | 61 | 292 | 2.0 | 9.0 | 0.00 | 0.00 | 0.00 | 59 | 1009.3 |
| 20260503222523 | 60 | 292 | 7.0 | 9.0 | 0.00 | 0.00 | 0.00 | 58 | 1009.4 |
| 20260503222115 | 61 | 270 | 4.0 | 5.0 | 0.00 | 0.00 | 0.00 | 59 | 1009.2 |
| 20260503221916 | 61 | 270 | 2.0 | 5.0 | 0.00 | 0.00 | 0.00 | 60 | 1009.8 |
| 20260503221712 | 61 | 270 | 5.0 | 5.0 | 0.00 | 0.00 | 0.00 | 59 | 1009.7 |
| 20260503221509 | 61 | 292 | 4.0 | 5.0 | 0.00 | 0.00 | 0.00 | 58 | 1009.4 |
| 20260503221347 | 61 | 270 | 4.0 | 4.0 | 0.00 | 0.00 | 0.00 | 54 | 1009.9 |
| 20260503221311 | 61 | 270 | 4.0 | 4.0 | 0.00 | 0.00 | 0.00 | 54 | 1009.9 |
| 20260503221105 | 61 | 270 | 4.0 | 4.0 | 0.00 | 0.00 | 0.00 | 58 | 1009.5 |
| 20260503220904 | 61 | 315 | 3.0 | 3.0 | 0.00 | 0.00 | 0.00 | 59 | 1009.9 |
| 20260503220408 | 61 | 292 | 3.0 | 6.0 | 0.00 | 0.00 | 0.00 | 59 | 1009.9 |
| 20260503220333 | 61 | 292 | 3.0 | 6.0 | 0.00 | 0.00 | 0.00 | 59 | 1009.9 |
| 20260503220133 | 61 | 292 | 2.0 | 3.0 | 0.00 | 0.00 | 0.00 | 57 | 1009.7 |
| 20260503215727 | 61 | 292 | 1.0 | 3.0 | 0.00 | 0.00 | 0.00 | 59 | 1009.6 |
| 20260503215409 | 61 | 270 | 1.0 | 1.0 | 0.00 | 0.00 | 0.00 | 58 | 1009.9 |
| 20260503215322 | 61 | 270 | 1.0 | 1.0 | 0.00 | 0.00 | 0.00 | 58 | 1009.9 |
| 20260503215120 | 61 | 225 | 1.0 | 1.0 | 0.00 | 0.00 | 0.00 | 59 | 1009.5 |
| 20260503214844 | 61 | 225 | 1.0 | 6.0 | 0.00 | 0.00 | 0.00 | 56 | 1009.9 |
| 20260503214439 | 61 | 292 | 4.0 | 5.0 | 0.00 | 0.00 | 0.00 | 58 | 1009.4 |
| 20260503213832 | 61 | 225 | 4.0 | 4.0 | 0.00 | 0.00 | 0.00 | 60 | 1009.8 |
| 20260503213633 | 61 | 292 | 4.0 | 4.0 | 0.00 | 0.00 | 0.00 | 58 | 1009.7 |
| 20260503213449 | 61 | 270 | 4.0 | 4.0 | 0.00 | 0.00 | 0.00 | 63 | 1009.8 |
| 20260503213247 | 61 | 281 | 3.0 | 4.0 | 0.00 | 0.00 | 0.00 | 59 | 1009.6 |
| 20260503212946 | 61 | 281 | 1.0 | 2.0 | 0.00 | 0.00 | 0.00 | 56 | 1009.5 |
| 20260503212305 | 61 | 292 | 4.0 | 6.0 | 0.00 | 0.00 | 0.00 | 58 | 1009.4 |
| 20260503212106 | 61 | 292 | 4.0 | 6.0 | 0.00 | 0.00 | 0.00 | 59 | 1009.4 |
| 20260503211900 | 61 | 292 | 2.0 | 4.0 | 0.00 | 0.00 | 0.00 | 57 | 1009.7 |
| 20260503211151 | 62 | 337 | 126.0 | 126.0 | 0.00 | 0.00 | 0.00 | 59 | 1009.9 |
| 20260503210902 | 62 | 292 | 3.0 | 9.0 | 0.00 | 0.00 | 0.00 | 57 | 1009.5 |
| 20260503210700 | 62 | 303 | 5.0 | 9.0 | 0.00 | 0.00 | 0.00 | 55 | 1009.6 |
| 20260503210458 | 62 | 292 | 5.0 | 8.0 | 0.00 | 0.00 | 0.00 | 59 | 1009.6 |
| 20260503210256 | 62 | 292 | 4.0 | 8.0 | 0.00 | 0.00 | 0.00 | 57 | 1009.6 |
| 20260503205851 | 62 | 315 | 3.0 | 8.0 | 0.00 | 0.00 | 0.00 | 54 | 1009.4 |
| 20260503205649 | 62 | 281 | 5.0 | 9.0 | 0.00 | 0.00 | 0.00 | 58 | 1009.7 |
| 20260503205447 | 62 | 292 | 5.0 | 9.0 | 0.00 | 0.00 | 0.00 | 56 | 1009.5 |
| 20260503205146 | 62 | 303 | 5.0 | 7.0 | 0.00 | 0.00 | 0.00 | 57 | 1009.3 |
| 20260503204945 | 62 | 292 | 4.0 | 6.0 | 0.00 | 0.00 | 0.00 | 58 | 1009.4 |
| 20260503204337 | 62 | 292 | 3.0 | 6.0 | 0.00 | 0.00 | 0.00 | 58 | 1009.6 |
| 20260503204134 | 62 | 315 | 3.0 | 6.0 | 0.00 | 0.00 | 0.00 | 56 | 1009.2 |
| 20260503203730 | 62 | 225 | 1.0 | 1.0 | 0.00 | 0.00 | 0.00 | 53 | 1009.5 |
| 20260503203524 | 62 | 337 | 2.0 | 7.0 | 0.00 | 0.00 | 0.00 | 57 | 1009.7 |
| 20260503203325 | 62 | 315 | 4.0 | 7.0 | 0.00 | 0.00 | 0.00 | 58 | 1009.4 |
| 20260503203121 | 62 | 315 | 1.0 | 3.0 | 0.00 | 0.00 | 0.00 | 59 | 1009.5 |
| 20260503202919 | 62 | 348 | 3.0 | 125.0 | 0.00 | 0.00 | 0.00 | 58 | 1009.6 |
| 20260503202717 | 62 | 225 | 6.0 | 125.0 | 0.00 | 0.00 | 0.00 | 58 | 1009.5 |
| 20260503202442 | 62 | 337 | 1.0 | 4.0 | 0.00 | 0.00 | 0.00 | 59 | 1009.1 |
| 20260503202316 | 62 | 326 | 4.0 | 4.0 | 0.00 | 0.00 | 0.00 | 59 | 1009.2 |
| 20260503202239 | 62 | 326 | 4.0 | 4.0 | 0.00 | 0.00 | 0.00 | 59 | 1009.2 |
| 20260503201835 | 62 | 270 | 1.0 | 6.0 | 0.00 | 0.00 | 0.00 | 62 | 1009.5 |
| 20260503201633 | 62 | 281 | 4.0 | 126.0 | 0.00 | 0.00 | 0.00 | 57 | 1009.0 |
| 20260503201430 | 62 | 315 | 0.0 | 126.0 | 0.00 | 0.00 | 0.00 | 54 | 1009.3 |
| 20260503201328 | 62 | 292 | 126.0 | 126.0 | 0.00 | 0.00 | 0.00 | 58 | 1009.5 |
| 20260503201125 | 62 | 225 | 3.0 | 3.0 | 0.00 | 0.00 | 0.00 | 57 | 1008.8 |
| 20260503200922 | 62 | 292 | 1.0 | 3.0 | 0.00 | 0.00 | 0.00 | 57 | 1008.9 |
| 20260503200720 | 62 | 292 | 3.0 | 5.0 | 0.00 | 0.00 | 0.00 | 58 | 1008.9 |
| 20260503200214 | 62 | 303 | 130.0 | 130.0 | 0.00 | 0.00 | 0.00 | 58 | 1009.1 |
| 20260503200022 | 62 | 292 | 3.0 | 7.0 | 0.00 | 0.00 | 0.00 | 59 | 1008.8 |
| 20260503195415 | 62 | 315 | 3.0 | 126.0 | 0.00 | 0.00 | 0.00 | 58 | 1009.1 |
| 20260503194752 | 62 | 0 | 2.0 | 4.0 | 0.00 | 0.00 | 0.00 | 53 | 1008.8 |
| 20260503194144 | 62 | 292 | 4.0 | 7.0 | 0.00 | 0.00 | 0.00 | 59 | 1008.9 |
| 20260503193942 | 62 | 292 | 3.0 | 131.0 | 0.00 | 0.00 | 0.00 | 55 | 1008.7 |
| 20260503193638 | 62 | 281 | 131.0 | 131.0 | 0.00 | 0.00 | 0.00 | 54 | 1008.5 |
| 20260503193137 | 62 | 326 | 6.0 | 9.0 | 0.00 | 0.00 | 0.00 | 58 | 1008.5 |
| 20260503192934 | 62 | 247 | 4.0 | 6.0 | 0.00 | 0.00 | 0.00 | 57 | 1008.6 |
| 20260503192732 | 62 | 292 | 2.0 | 4.0 | 0.00 | 0.00 | 0.00 | 55 | 1008.4 |
| 20260503192530 | 62 | 292 | 2.0 | 5.0 | 0.00 | 0.00 | 0.00 | 55 | 1008.4 |
| 20260503192125 | 62 | 258 | 2.0 | 2.0 | 0.00 | 0.00 | 0.00 | 59 | 1008.5 |
| 20260503192038 | 62 | 292 | 4.0 | 6.0 | 0.00 | 0.00 | 0.00 | 58 | 1008.4 |
| 20260503191834 | 62 | 292 | 4.0 | 6.0 | 0.00 | 0.00 | 0.00 | 56 | 1008.5 |
| 20260503191429 | 62 | 225 | 1.0 | 4.0 | 0.00 | 0.00 | 0.00 | 56 | 1008.6 |
| 20260503191227 | 62 | 315 | 1.0 | 2.0 | 0.00 | 0.00 | 0.00 | 59 | 1008.3 |
| 20260503191025 | 62 | 292 | 1.0 | 2.0 | 0.00 | 0.00 | 0.00 | 53 | 1008.4 |
| 20260503190857 | 62 | 270 | 2.0 | 2.0 | 0.00 | 0.00 | 0.00 | 57 | 1008.6 |
| 20260503190822 | 62 | 270 | 2.0 | 2.0 | 0.00 | 0.00 | 0.00 | 57 | 1008.6 |
| 20260503190620 | 62 | 225 | 0.0 | 2.0 | 0.00 | 0.00 | 0.00 | 58 | 1008.5 |
| 20260503190216 | 62 | 225 | 1.0 | 125.0 | 0.00 | 0.00 | 0.00 | 56 | 1008.5 |
| 20260503190114 | 62 | 225 | 125.0 | 125.0 | 0.00 | 0.00 | 0.00 | 53 | 1008.3 |
| 20260503185946 | 62 | 225 | 1.0 | 3.0 | 0.00 | 0.00 | 0.00 | 57 | 1008.2 |
| 20260503185743 | 62 | 225 | 1.0 | 3.0 | 0.00 | 0.00 | 0.00 | 57 | 1007.8 |
| 20260503185339 | 62 | 45 | 2.0 | 124.0 | 0.00 | 0.00 | 0.00 | 57 | 1008.3 |
| 20260503185137 | 62 | 225 | 4.0 | 124.0 | 0.00 | 0.00 | 0.00 | 56 | 1008.2 |
| 20260503184840 | 61 | 292 | 4.0 | 4.0 | 0.00 | 0.00 | 0.00 | 52 | 1008.2 |
| 20260503184233 | 61 | 303 | 3.0 | 7.0 | 0.00 | 0.00 | 0.00 | 56 | 1008.0 |
| 20260503184031 | 62 | 326 | 5.0 | 9.0 | 0.00 | 0.00 | 0.00 | 55 | 1007.7 |
| 20260503183829 | 62 | 326 | 6.0 | 9.0 | 0.00 | 0.00 | 0.00 | 56 | 1007.9 |
| 20260503183627 | 62 | 0 | 9.0 | 9.0 | 0.00 | 0.00 | 0.00 | 57 | 1007.9 |
| 20260503183337 | 62 | 0 | 6.0 | 7.0 | 0.00 | 0.00 | 0.00 | 55 | 1007.9 |
| 20260503182729 | 62 | 326 | 4.0 | 4.0 | 0.00 | 0.00 | 0.00 | 59 | 1007.5 |
| 20260503182712 | 62 | 337 | 7.0 | 129.0 | 0.00 | 0.00 | 0.00 | 56 | 1007.5 |
| 20260503182609 | 62 | 45 | 129.0 | 129.0 | 0.00 | 0.00 | 0.00 | 56 | 1007.5 |
| 20260503182459 | 62 | 247 | 3.0 | 7.0 | 0.00 | 0.00 | 0.00 | 57 | 1007.8 |
| 20260503182257 | 62 | 270 | 5.0 | 7.0 | 0.00 | 0.00 | 0.00 | 56 | 1007.8 |
| 20260503182055 | 62 | 0 | 7.0 | 8.0 | 0.00 | 0.00 | 0.00 | 56 | 1007.8 |
| 20260503181852 | 62 | 292 | 5.0 | 130.0 | 0.00 | 0.00 | 0.00 | 55 | 1007.9 |
| 20260503181650 | 62 | 236 | 6.0 | 130.0 | 0.00 | 0.00 | 0.00 | 56 | 1007.6 |
| 20260503181548 | 62 | 236 | 130.0 | 130.0 | 0.00 | 0.00 | 0.00 | 55 | 1007.6 |
| 20260503180800 | 62 | 236 | 4.0 | 13.0 | 0.00 | 0.00 | 0.00 | 56 | 1007.2 |
| 20260503180355 | 62 | 270 | 6.0 | 9.0 | 0.00 | 0.00 | 0.00 | 55 | 1007.5 |
| 20260503180153 | 62 | 236 | 9.0 | 12.0 | 0.00 | 0.00 | 0.00 | 55 | 1007.7 |
| 20260503175546 | 62 | 326 | 7.0 | 9.0 | 0.00 | 0.00 | 0.00 | 56 | 1007.6 |
| 20260503175344 | 63 | 281 | 4.0 | 8.0 | 0.00 | 0.00 | 0.00 | 57 | 1007.8 |
| 20260503174737 | 63 | 270 | 9.0 | 12.0 | 0.00 | 0.00 | 0.00 | 56 | 1007.5 |
| 20260503174332 | 63 | 292 | 8.0 | 9.0 | 0.00 | 0.00 | 0.00 | 52 | 1007.8 |
| 20260503174130 | 63 | 247 | 6.0 | 9.0 | 0.00 | 0.00 | 0.00 | 56 | 1008.0 |
| 20260503173726 | 63 | 292 | 4.0 | 10.0 | 0.00 | 0.00 | 0.00 | 55 | 1007.7 |
| 20260503173524 | 63 | 247 | 5.0 | 5.0 | 0.00 | 0.00 | 0.00 | 56 | 1008.0 |
| 20260503173205 | 63 | 225 | 7.0 | 11.0 | 0.00 | 0.00 | 0.00 | 55 | 1007.5 |
| 20260503172559 | 63 | 292 | 3.0 | 4.0 | 0.00 | 0.00 | 0.00 | 57 | 1007.6 |
| 20260503172356 | 63 | 247 | 4.0 | 4.0 | 0.00 | 0.00 | 0.00 | 58 | 1008.2 |
| 20260503172215 | 63 | 315 | 2.0 | 9.0 | 0.00 | 0.00 | 0.00 | 54 | 1007.9 |
| 20260503172014 | 63 | 0 | 8.0 | 9.0 | 0.00 | 0.00 | 0.00 | 56 | 1008.2 |
| 20260503171609 | 63 | 292 | 6.0 | 9.0 | 0.00 | 0.00 | 0.00 | 57 | 1008.2 |
| 20260503171407 | 63 | 281 | 5.0 | 127.0 | 0.00 | 0.00 | 0.00 | 57 | 1008.0 |
| 20260503171205 | 63 | 303 | 4.0 | 127.0 | 0.00 | 0.00 | 0.00 | 57 | 1008.3 |
| 20260503171103 | 63 | 292 | 127.0 | 127.0 | 0.00 | 0.00 | 0.00 | 56 | 1008.3 |
| 20260503170943 | 63 | 292 | 6.0 | 7.0 | 0.00 | 0.00 | 0.00 | 52 | 1008.2 |
| 20260503170740 | 63 | 247 | 6.0 | 10.0 | 0.00 | 0.00 | 0.00 | 57 | 1008.1 |
| 20260503170335 | 63 | 326 | 5.0 | 9.0 | 0.00 | 0.00 | 0.00 | 56 | 1008.3 |
| 20260503170134 | 63 | 292 | 9.0 | 128.0 | 0.00 | 0.00 | 0.00 | 56 | 1008.6 |
| 20260503150952 | 67 | 292 | 13.0 | 17.0 | 0.00 | 0.00 | 0.00 | 50 | 1009.3 |
| 20260503150753 | 67 | 303 | 9.0 | 18.0 | 0.00 | 0.00 | 0.00 | 51 | 1009.4 |
| 20260503150547 | 67 | 303 | 6.0 | 18.0 | 0.00 | 0.00 | 0.00 | 51 | 1009.3 |
| 20260503150354 | 67 | 292 | 18.0 | 18.0 | 0.00 | 0.00 | 0.00 | 50 | 1009.2 |
| 20260503150202 | 67 | 292 | 9.0 | 18.0 | 0.00 | 0.00 | 0.00 | 51 | 1009.3 |
| 20260503140237 | 67 | 315 | 9.0 | 134.0 | 0.00 | 0.00 | 0.00 | 46 | 1009.9 |
| 20260503140135 | 67 | 315 | 134.0 | 134.0 | 0.00 | 0.00 | 0.00 | 47 | 1009.9 |
| 20260503131352 | 73 | 315 | 4.0 | 14.0 | 0.00 | 0.00 | 0.00 | 40 | 1010.0 |
| 20260503130745 | 73 | 315 | 8.0 | 11.0 | 0.00 | 0.00 | 0.00 | 40 | 1010.1 |
| 20260503130431 | 73 | 315 | 11.0 | 15.0 | 0.00 | 0.00 | 0.00 | 39 | 1010.1 |
| 20260503130228 | 73 | 315 | 11.0 | 15.0 | 0.00 | 0.00 | 0.00 | 41 | 1010.1 |
| 20260503110728 | 70 | 337 | 15.0 | 16.0 | 0.00 | 0.00 | 0.00 | 40 | 1011.3 |
| 20260503110122 | 70 | 315 | 13.0 | 16.0 | 0.00 | 0.00 | 0.00 | 40 | 1011.4 |
| 20260503100217 | 71 | 315 | 10.0 | 12.0 | 0.00 | 0.00 | 0.00 | 41 | 1011.7 |